Content
SEND FEEDBACK

Daily
Averages
Monthly
Summary
United States of America

GREENSBURG, INDIANA


Home > North America > United States > Indiana
Elevation: 949 feet     Latitude: 39 20N     Longitude: 085 28W

WEATHER
 
SELECT A DAY
Number of Records: 172,655;   Date Range: 10/15/98 - 7/20/14
 
SHARE

PRINT THIS DATA

[ ← Previous Day ]
WEATHER ALMANAC - FEBRUARY 16, 2014
[ Next Day → ]
[ °C ]   °F
Weather ElementAverageHighLow
Temperature25.4 °F28.4 °F (9:48 am)18 °F (11:53 pm)
Dewpoint18.7 °F21.2 °F (6:49 am)12 °F (10:53 pm)
Humidity76.1 %86 % (6:49 am)63 % (2:53 pm)
Barometer30.10 in30.31 in (7:53 pm)29.96 in (6:49 am)
Wind Speed8.3 mph13.8 mph (11:53 am)
Weather ElementAverage
Visibility5.7 mi
Wind DirectionSSW (202 °)

Weather ElementTotal
Precipitation0.12 in
Heating Degree Days41.8 (Base 65)
Averaged from 35 records on February 16, 2014
WEATHER CONDITIONS BREAKOUT
WIND DIRECTION BREAKOUT
WEATHER BY HOUR - FEBRUARY 16, 2014
[ °C ]   °F
Local TimeTemperatureDewpointHumidityBarometerVisibilityWind DirectionWind SpeedGust SpeedPrecipitationEventsConditions
12:19 AM23.0 °F19.0 °F85 %30.01 in1.2 miSSE (150°)8.1 mph0.02 inSnowLight Snow
12:42 AM24.1 °F19.0 °F81 %30.01 in0.8 miSouth (170°)8.1 mph0.03 inSnowLight Snow
12:46 AM24.1 °F19.0 °F81 %30.01 in1.0 miSouth (180°)6.9 mph0.03 inSnowLight Snow
12:53 AM24.1 °F19.9 °F84 %30.04 in1.5 miSouth (180°)6.9 mph0.04 inSnowLight Snow
1:09 AM24.1 °F19.0 °F81 %30.00 in2.0 miSouth (170°)9.2 mph0.00 inSnowLight Snow
1:20 AM24.1 °F19.0 °F81 %30.00 in4.0 miSouth (180°)9.2 mph0.00 inSnowLight Snow
1:53 AM24.1 °F19.9 °F84 %30.01 in5.0 miSSE (160°)9.2 mph0.00 inSnowLight Snow
2:53 AM25.0 °F19.9 °F81 %30.00 in5.0 miSouth (190°)8.1 mph0.00 inSnowLight Snow
3:53 AM25.0 °F19.9 °F81 %29.99 in6.0 miSouth (190°)9.2 mph0.00 inHaze
4:53 AM25.0 °F21.0 °F85 %29.97 in6.0 miSouth (190°)8.1 mphOvercast
5:53 AM25.0 °F21.0 °F85 %29.99 in5.0 miSSW (200°)9.2 mphOvercast
6:49 AM24.8 °F21.2 °F86 %29.96 in5.0 miSSW (210°)6.9 mphOvercast
6:53 AM26.1 °F21.0 °F81 %29.99 in5.0 miSSW (210°)6.9 mphHaze
7:17 AM26.1 °F21.0 °F81 %29.97 in5.0 miSW (220°)6.9 mphHaze
7:53 AM26.1 °F21.0 °F81 %30.01 in3.0 miSSW (210°)6.9 mphHaze
8:35 AM26.1 °F21.0 °F81 %30.01 in4.0 miWSW (250°)8.1 mphHaze
8:53 AM27.0 °F21.0 °F78 %30.04 in4.0 miWest (260°)8.1 mphHaze
9:15 AM28.0 °F21.0 °F75 %30.01 in7.0 miWest (280°)9.2 mphOvercast
9:48 AM28.4 °F21.2 °F74 %30.02 in7.0 miWNW (290°)11.5 mphOvercast
9:53 AM28.0 °F21.0 °F75 %30.06 in6.0 miWNW (290°)10.4 mphHaze
10:53 AM28.0 °F19.9 °F72 %30.10 in6.0 miWNW (290°)11.5 mphHaze
11:53 AM28.0 °F19.9 °F72 %30.13 in7.0 miNW (310°)13.8 mphOvercast
12:53 PM28.0 °F19.0 °F69 %30.14 in7.0 miNW (320°)13.8 mphOvercast
1:46 PM28.0 °F18.0 °F66 %30.13 in2.5 miNW (310°)11.5 mphHaze
1:53 PM28.0 °F18.0 °F66 %30.16 in10.0 miWNW (300°)9.2 mphOvercast
2:53 PM28.0 °F17.1 °F63 %30.17 in10.0 miNW (310°)10.4 mphOvercast
3:53 PM28.0 °F17.1 °F63 %30.20 in10.0 miWNW (290°)6.9 mphOvercast
4:53 PM27.0 °F17.1 °F66 %30.22 in8.0 miNW (320°)6.9 mphOvercast
5:53 PM25.0 °F16.0 °F69 %30.25 in8.0 miNorth (10°)6.9 mphOvercast
6:53 PM24.1 °F15.1 °F69 %30.28 in9.0 miNNE (20°)9.2 mphOvercast
7:53 PM24.1 °F15.1 °F69 %30.31 in8.0 miNNE (20°)4.6 mphOvercast
8:53 PM23.0 °F15.1 °F72 %30.31 in8.0 miESE (110°)5.8 mphOvercast
9:53 PM23.0 °F15.1 °F72 %30.31 in8.0 miEast (100°)3.5 mphOvercast
10:53 PM19.0 °F12.0 °F74 %30.31 in9.0 miENE (60°)4.6 mphScattered Clouds
11:53 PM18.0 °F12.9 °F81 %30.29 in7.0 miESE (120°)5.8 mphClear
Hourly data recorded from KGEZ, located miles away from Greensburg, Indiana







STORIES FROM OUR PARTNERS